EHI
0 0 0 0 0 0 0 0 0 0 0 0 0 0 0 0 0 0 0 0 0 0 0 0 0 0 0 0 0 0 0 0 0 0 0 0 0 0 0 0 0 0 0 0
0 0 0 0 0 0 0 0 0 0 0 0 0 0 0 0 0 0 0 0 0 0 0 0 0 0 0 0 0 0 0 0 0 0 0 0 0 0 0 0 0 0 0 0
0 0 0 0 0 0 0 0 0 0 0 0 0 0 0 0 0 0 0 0 0 0 0 0 0 0 0 0 0 0 0 0 0 0 0 0 0 0 0 0 0 0 0 0
0 0 0 0 0 0 0 0 0 0 0 0 0 0 0 0 0 0 0 0 0 0 0 0 0 0 0 0 0 0 0 0 0 0 0 0 0 0 0 0 0 0 0 0
0 0 0 0 0 0 0 0 0 0 0 0 0 0 0 0 0 0 0 0 0 0 0 0 0 0 0 0 0 0 0 0 0 0 0 0 0 0 0 0 0 0 0 0
0 0 0 0 0 0 0 0 0 0 0 0 0 0 0 0 0 0 0 0 0 0 0 0 0 0 0 0 0 0 0 0 0 0 0 0 0 0 0 0 0 0 0 0
0 0 0 0 0 0 0 0 0 0 0 0 0 0 0 0 0 0 0 0 0 0 0 0 0 0 0 0 0 0 0 0 0 0 0 0 0 0 0 0 0 0 0 0
0 0 0 0 0 0 0 0 0 0 0 0 0 0 0 0 0 0 0 0 0 0 0 0 0 0 0 0 0 0 0 0 0 0 0 0 0 0 0 0 0 0 0 0
0 0 0 0 0 0 0 0 0 0 0 0 0 0 0 0 0 0 0 0 0 0 0 0 0 0 0 0 0 0 0 0 0 0 0 0 0 0 0 0 0 0 0 0
0 0 0 0 0 0 0 0 0 0 0 0 0 0 0 0 0 0 0 0 0 0 0 0 0 0 0 0 0 0 0 0 0 0 0 0 0 0 0 0 0 0 0 0
0 0 0 0 0 0 0 0 0 0 0 0 0 0 0 0 0 0 0 0 0 0 0 0 0 0 0 0 0 0 0 0 0 0 0 0 0 0 0 0 0 0 0 0
0 0 0 0 0 0 0 0 0 0 0 0 0 0 0 0 0 0 0 0 0 0 0 0 0 0 0 0 0 0 0 0 0 0 0 0 0 0 0 0 0 0 0 0
0 0 0 0 0 0 0 0 0 0 0 0 0 0 0 0 0 0 0 0 0 0 0 0 0 0 0 0 0 0 0 0 0 0 0 0 0 0 0 0 0 0 0 0
0 0 0 0 0 0 0 0 0 0 0 0 0 0 0 0 0 0 0 0 0 0 0 0 0 0 0 0 0 0 0 0 0 0 0 0 0 0 0 0 0 0 0 0
0 0 0 0 0 0 0 0 0 0 0 0 0 0 0 0 0 0 0 0 0 0 0 0 0 0 0 0 0 0 0 0 0 0 0 0 0 0 0 0 0 0 0 0
0 0 0 0 0 0 0 0 0 0 0 0 0 0 0 0 0 0 0 0 0 0 0 0 0 0 0 0 0 0 0 0 0 0 0 0 0 0 0 0 0 0 0 0
0 0 0 0 0 0 0 0 0 0 0 0 0 0 0 0 0 0 0 0 0 0 0 0 0 0 0 0 0 0 0 0 0 0 0 0 0 0 0 0 0 0 0 0
0 0 0 0 0 0 0 0 0 0 0 0 0 0 0 0 0 0 0 0 0 0 0 0 0 0 0 0 0 0 0 0 0 0 0 0 0 0 0 0 0 0 0 0
0 0 0 0 0 0 0 0 0 0 0 0 0 0 0 0 0 0 0 0 0 0 0 0 0 0 0 0 0 0 0 0 0 0 0 0 0 0 0 0 0 0 0 0
0 0 0 0 0 0 0 0 0 0 0 0 0 0 0 0 0 0 0 0 0 0 0 0 0 0 0 0 0 0 0 0 0 0 0 0 0 0 0 0 0 0 0 0
0 0 0 0 0 0 0 0 0 0 0 0 0 0 0 0 0 0 0 0 0 0 0 0 0 0 0 0 0 0 0 0 0 0 0 0 0 0 0 0 0 0 0 0
0 0 0 0 0 0 0 0 0 0 0 0 0 0 0 0 0 0 0 0 0 0 0 0 0 0 0 0 0 0 0 0 0 0 0 0 0 0 0 0 0 0 0 0
0 0 0 0 0 0 0 0 0 0 0 0 0 0 0 0 0 0 0 0 0 0 0 0 0 0 0 0 0 0 0 0 0 0 0 0 0 0 0 0 0 0 0 0
0 0 0 0 0 0 0 0 0 0 0 0 0 0 0 0 0 0 0 0 0 0 0 0 0 0 0 0 0 0 0 0 0 0 0 0 0 0 0 0 0 0 0 0
0 0 0 0 0 0 0 0 0 0 0 0 0 0 0 0 0 0 0 0 0 0 0 0 0 0 0 0 0 0 0 0 0 0 0 0 0 0 0 0 0 0 0 0
0 0 0 0 0 0 0 0 0 0 0 0 0 0 0 0 0 0 0 0 0 0 0 0 0 0 0 0 0 0 0 0 0 0 0 0 0 0 0 0 0 0 0 0
Wind_Speed
11 10 14 18 19 13 12 14 15 12 6 10 16 20 20 16 14 17 17 17 17 18 17 14 14 14 14 16 17 18 18 17 14 11 11 11 11 10 10 10 12 14 13 13
10 19 17 13 15 14 12 15 16 9 5 8 13 21 21 20 20 20 21 20 19 18 17 15 14 14 16 17 18 19 19 18 18 14 13 10 11 10 11 10 12 14 14 14
21 12 15 14 15 18 18 18 16 11 3 7 10 20 22 21 19 20 20 21 21 20 20 18 17 17 16 17 19 17 20 20 20 18 12 9 9 8 10 12 12 15 16 15
19 13 14 17 18 18 18 16 14 12 9 8 9 15 19 16 17 18 19 19 21 21 20 20 18 17 18 18 17 18 19 20 20 19 16 17 14 14 16 13 12 14 16 16
15 15 18 21 21 18 9 8 12 13 13 12 11 13 15 11 17 17 17 18 20 20 20 19 19 18 17 16 15 16 18 19 19 20 20 19 18 16 12 13 14 14 14 16
12 9 15 16 15 15 7 5 6 8 9 15 20 17 17 14 17 15 14 15 17 17 17 18 17 15 15 14 13 15 16 18 18 20 21 22 22 19 17 16 14 13 11 12
13 12 9 8 11 13 13 9 6 9 10 13 12 16 17 14 15 16 16 15 14 14 14 14 15 14 13 14 14 14 16 18 18 20 21 22 22 22 21 18 16 14 12 12
16 15 17 14 16 15 20 18 12 10 10 8 8 17 15 9 11 13 14 14 13 13 12 13 13 12 12 12 12 13 15 17 17 18 20 20 21 16 15 18 15 14 12 13
15 13 12 16 14 16 15 17 14 7 3 6 10 12 13 7 11 13 14 14 15 14 13 11 11 11 10 10 11 12 13 15 15 17 18 18 19 18 17 17 16 14 13 11
10 10 9 11 9 16 14 11 8 10 10 14 15 18 15 9 13 14 15 16 15 13 11 10 9 9 8 8 8 9 11 13 13 14 14 13 16 17 17 15 16 15 15 14
9 9 8 11 17 19 16 16 12 9 8 9 12 14 8 12 12 13 13 12 11 10 10 9 8 7 7 6 6 7 8 10 10 12 13 14 14 15 15 15 15 15 14 14
11 7 8 12 8 11 18 19 19 13 11 10 11 15 4 8 8 8 8 8 8 9 8 8 7 6 6 6 6 6 7 8 9 9 10 11 12 12 13 13 13 13 13 13
12 9 7 7 8 9 13 18 21 17 10 11 13 17 5 7 6 5 7 9 7 7 7 7 7 7 7 7 6 6 7 7 7 7 9 10 10 11 12 12 12 11 12 12
11 9 12 15 9 10 14 17 19 19 13 16 22 27 19 11 9 8 8 8 9 8 8 8 8 8 7 7 6 6 7 6 6 7 8 9 10 11 11 11 10 10 10 11
9 10 11 11 8 8 12 16 20 23 22 18 21 27 30 21 15 12 11 10 10 10 10 9 9 8 8 8 7 7 7 6 6 7 8 9 8 8 8 8 8 8 8 8
8 7 8 8 10 10 13 17 18 21 21 22 23 27 28 22 15 14 13 12 14 14 12 11 10 9 10 9 8 8 8 6 6 7 8 7 6 6 7 7 6 6 6 6
9 8 8 8 6 6 15 19 20 19 20 19 24 28 26 21 18 16 15 14 15 15 13 12 11 11 10 11 9 9 8 5 6 7 7 6 6 6 6 6 6 6 6 6
10 9 5 5 6 16 12 11 17 21 23 22 21 24 26 22 18 13 13 13 14 13 13 13 12 13 12 10 9 7 5 6 7 7 7 6 7 7 5 6 6 6 5 5
10 10 6 7 11 13 11 9 12 16 20 19 23 24 22 17 13 15 10 9 12 14 13 12 12 11 11 9 8 6 6 6 6 7 8 7 8 7 7 8 7 6 5 5
9 9 7 7 10 13 12 8 7 9 15 11 13 16 15 12 13 13 7 8 11 12 11 11 10 9 9 9 5 6 7 7 8 9 8 7 7 8 8 8 6 5 5 5
9 9 12 12 12 11 8 4 8 12 10 4 6 10 11 12 13 14 11 9 9 11 10 9 9 9 9 7 5 7 7 9 8 6 6 6 7 7 7 6 5 5 5 5
13 11 12 11 13 14 6 8 10 6 1 2 4 6 9 11 13 13 13 11 10 10 9 8 8 9 8 5 5 7 9 7 4 4 5 6 6 6 5 6 5 5 6 6
11 11 8 11 10 4 3 5 2 0 3 4 5 6 8 11 12 13 13 12 11 10 9 7 7 8 7 5 5 8 8 3 3 4 5 5 5 5 5 6 7 6 6 6
6 4 6 7 8 6 5 3 1 2 4 5 6 8 9 12 13 13 12 10 10 8 8 7 6 7 8 6 5 6 4 2 4 5 5 5 5 6 5 5 6 6 7 7
5 5 6 9 7 5 5 4 4 5 5 7 8 8 10 12 13 12 11 10 9 8 7 6 6 7 8 7 6 5 3 3 4 5 5 5 5 6 5 5 4 5 4 5
5 6 8 8 4 5 6 4 5 6 7 8 9 10 9 9 11 11 11 10 9 8 7 6 6 7 7 6 6 4 3 3 4 5 5 5 5 5 5 5 4 4 4 5
Wind_Direction
177 197 207 205 212 235 227 222 229 235 214 218 241 252 257 253 248 251 252 251 249 249 251 246 236 226 222 220 217 215 213 212 208 206 208 210 214 213 215 217 216 215 213 210
189 216 216 208 210 220 224 230 235 240 216 231 257 260 261 257 252 250 252 252 252 253 251 245 238 229 222 220 217 216 215 213 209 209 209 212 214 217 217 215 218 218 215 213
209 213 199 199 204 213 223 228 229 229 220 234 272 268 256 250 247 248 249 251 253 252 251 248 239 232 226 224 220 216 215 214 212 211 210 208 213 217 215 216 216 216 216 215
220 215 195 202 211 212 228 223 228 227 233 245 232 270 262 253 248 243 244 245 247 247 247 248 245 238 230 227 224 221 219 215 213 209 209 208 210 216 219 218 218 215 214 216
210 199 198 209 213 208 222 202 214 225 234 249 233 256 265 249 252 248 242 242 243 244 245 246 245 243 239 232 226 223 221 219 214 210 210 212 218 223 224 220 220 218 213 215
220 201 205 217 215 205 178 167 202 219 228 242 235 239 263 240 246 250 244 241 245 247 247 248 249 247 245 238 227 223 222 222 217 212 212 214 218 220 221 220 219 217 216 214
211 212 207 198 188 191 192 187 202 209 215 237 221 228 251 245 239 242 249 251 251 250 250 251 251 248 244 238 230 224 223 224 218 215 215 216 219 221 222 222 222 219 217 216
203 210 199 198 200 195 200 204 212 219 222 227 200 232 250 243 241 245 250 255 259 258 254 253 254 253 250 244 234 227 225 226 221 217 218 218 219 221 224 224 223 221 220 221
201 215 194 201 203 197 198 212 222 237 251 256 232 246 261 239 245 243 245 248 251 253 254 255 257 256 252 247 239 232 230 229 225 221 219 220 220 221 223 224 224 225 224 223
209 208 194 190 193 206 209 195 189 206 217 236 244 245 245 218 225 233 241 245 249 254 258 261 262 262 259 253 248 240 234 233 230 226 223 222 222 222 225 226 225 224 224 221
207 208 192 185 198 198 193 199 202 204 215 230 247 248 238 234 225 230 239 246 256 263 268 271 273 272 269 262 253 245 238 236 233 229 226 224 225 224 224 226 228 228 227 225
195 199 214 217 226 225 211 208 205 210 215 225 248 259 200 214 225 231 248 259 266 271 277 279 281 277 270 263 255 249 242 236 234 230 227 226 225 223 223 225 227 227 228 226
178 190 200 212 224 218 218 218 218 222 225 223 236 256 227 212 224 236 260 277 282 283 287 287 284 278 272 266 258 251 245 240 236 229 225 224 223 222 223 224 225 225 226 226
185 201 214 223 217 200 213 218 222 222 226 232 236 253 254 241 252 264 269 277 286 289 289 288 286 283 279 273 266 260 256 246 233 226 224 224 224 223 225 225 225 225 224 224
195 213 222 238 240 223 225 227 224 226 231 236 243 251 260 260 264 269 273 277 280 283 282 280 280 282 280 274 268 262 259 247 231 226 224 227 226 225 224 223 222 221 220 221
194 207 214 233 233 235 238 235 233 234 236 242 251 258 261 268 266 265 264 265 269 272 275 276 277 274 272 270 264 260 257 246 228 228 228 227 221 216 216 216 214 211 212 212
186 183 196 226 220 230 240 230 229 233 232 234 243 252 264 268 264 264 267 266 265 269 273 271 269 270 266 265 258 254 253 239 223 226 226 218 214 213 214 207 202 206 206 202
189 184 193 206 196 232 241 227 226 234 239 236 243 254 262 268 273 271 268 269 271 275 276 275 272 272 272 268 261 256 242 227 221 224 224 215 207 209 204 199 203 204 198 195
199 186 188 201 228 249 256 229 215 223 240 238 242 251 262 273 277 268 262 269 276 281 280 277 275 275 275 271 265 249 237 228 223 223 223 216 208 203 199 200 202 198 188 190
201 200 197 203 221 233 240 213 203 217 246 240 238 247 261 272 266 269 293 294 285 283 283 282 281 276 271 271 263 239 235 227 228 227 223 215 206 204 204 203 198 189 180 182
181 198 209 217 230 248 247 213 169 205 237 224 233 248 261 260 261 283 296 288 282 284 284 284 281 275 272 272 249 239 238 235 235 229 221 209 202 203 203 194 188 175 167 163
187 192 204 210 224 238 209 179 201 228 267 251 267 270 273 275 279 286 291 292 292 292 295 293 286 283 284 276 244 244 245 247 234 215 215 211 202 197 187 179 177 171 167 167
206 203 201 207 223 244 189 197 211 286 262 276 286 291 291 287 286 292 295 297 298 295 296 297 289 289 290 276 246 248 256 249 222 211 213 209 197 188 179 177 176 173 174 179
218 221 217 228 235 237 227 228 268 300 285 285 287 290 292 289 291 294 297 299 300 298 297 299 295 290 289 287 273 263 260 224 209 212 210 198 191 189 180 179 176 178 183 184
220 206 219 235 245 242 235 251 290 297 294 292 293 290 287 287 288 291 294 294 294 296 296 294 284 281 283 289 283 282 263 213 214 211 204 199 194 186 180 176 175 179 187 184
220 217 220 234 228 243 257 282 303 291 288 291 294 292 287 282 286 291 289 290 293 295 297 294 290 288 291 292 287 286 259 213 209 210 200 200 196 183 178 171 150 122 138 144